Location: Tel Aviv
(32.0670°N, 34.7670°E)
Time: 07:54:37
(UTC+02:00)

A-11 Canister half - All Passes

Search period start: 29 November 2023 00:00
Search period end: 09 December 2023 00:00
Orbit: 1524 x 1684 km, 47.3° (Epoch: 28 November)

Date Brightness Start Highest point End Pass type
(mag) Time Alt. Az. Time Alt. Az. Time Alt. Az.
29 Nov - 00:52:04 10° NW 01:01:13 40° NNE 01:10:05 10° E visible
29 Nov - 02:57:26 10° NW 03:07:16 90° N 03:16:43 10° SE visible
29 Nov - 05:04:11 10° WNW 05:11:20 24° SW 05:18:23 10° S visible
29 Nov - 18:10:33 10° SSW 18:19:57 45° SE 18:29:20 10° ENE visible
29 Nov - 20:14:49 10° WSW 20:24:54 64° NNW 20:34:51 10° NE visible
29 Nov - 22:22:48 10° WNW 22:31:46 34° N 22:40:31 10° NE visible
30 Nov - 00:30:14 10° NW 00:39:22 39° NNE 00:48:12 10° E visible
30 Nov - 02:35:40 10° NW 02:45:31 86° NE 02:55:00 10° SE visible
30 Nov - 04:42:12 10° WNW 04:49:40 26° SW 04:57:00 10° S visible
30 Nov - 17:48:57 10° SSW 17:58:14 42° SE 18:07:29 10° ENE visible
30 Nov - 19:52:58 10° WSW 20:03:06 67° NNW 20:13:06 10° NE visible
30 Nov - 22:00:52 10° WNW 22:09:53 35° N 22:18:43 10° NE visible
01 Dec - 00:08:24 10° NW 00:17:31 38° NNE 00:26:21 10° E night (unlit)
01 Dec - 02:13:53 10° NW 02:23:46 83° NE 02:33:16 10° SE visible
01 Dec - 04:20:15 10° WNW 04:28:01 28° SW 04:35:35 10° S visible
01 Dec - 17:27:23 10° SSW 17:36:31 40° SE 17:45:38 10° ENE visible
01 Dec - 19:31:09 10° WSW 19:41:17 70° NW 19:51:21 10° NE visible
01 Dec - 21:38:56 10° WNW 21:48:00 36° NNW 21:56:54 10° NE visible
01 Dec - 23:46:34 10° NW 23:55:40 37° NNE 00:04:28 10° E night (unlit)
02 Dec - 01:52:06 10° NW 02:02:01 79° NE 02:11:32 10° SE visible
02 Dec - 03:58:20 10° WNW 04:06:20 30° SW 04:14:09 10° S visible
02 Dec - 17:05:50 10° SSW 17:14:47 37° SE 17:23:46 10° ENE visible
02 Dec - 19:09:20 10° WSW 19:19:30 73° NW 19:29:36 10° NE visible
02 Dec - 21:17:00 10° WNW 21:26:07 36° NNW 21:35:05 10° NE visible
02 Dec - 23:24:44 10° NW 23:33:48 37° NNE 23:42:35 10° ENE night (unlit)
03 Dec - 01:30:20 10° NW 01:40:15 76° NE 01:49:47 10° ESE visible
03 Dec - 03:36:25 10° WNW 03:44:40 33° SW 03:52:41 10° S visible
03 Dec - 16:44:18 10° S 16:53:04 35° SE 17:01:52 10° ENE visible
03 Dec - 18:47:31 10° WSW 18:57:41 76° NW 19:07:50 10° NE visible
03 Dec - 20:55:04 10° WNW 21:04:15 37° NNW 21:13:17 10° NE visible
03 Dec - 23:02:54 10° NW 23:11:56 36° NNE 23:20:43 10° ENE night (unlit)
04 Dec - 01:08:33 10° NW 01:18:29 73° NE 01:28:02 10° ESE visible
04 Dec - 03:14:32 10° WNW 03:22:58 35° SW 03:31:12 10° S visible
04 Dec - 16:22:47 10° S 16:31:22 33° SE 16:39:58 10° ENE daylight
04 Dec - 18:25:44 10° WSW 18:35:54 79° NW 18:46:05 10° NE visible
04 Dec - 20:33:08 10° W 20:42:22 38° NNW 20:51:30 10° NE visible
04 Dec - 22:41:02 10° NW 22:50:04 35° N 22:58:51 10° ENE visible
05 Dec - 00:46:46 10° NW 00:56:42 70° NE 01:06:15 10° ESE visible
05 Dec - 02:52:38 10° WNW 03:01:18 37° SW 03:09:42 10° SSE visible
05 Dec - 16:01:17 10° S 16:09:39 31° SE 16:18:04 10° ENE daylight
05 Dec - 18:03:56 10° SW 18:14:07 82° NW 18:24:19 10° NE visible
05 Dec - 20:11:13 10° W 20:20:30 39° NNW 20:29:42 10° NE visible
05 Dec - 22:19:11 10° NW 22:28:11 35° N 22:36:57 10° ENE visible
06 Dec - 00:25:00 10° NW 00:34:56 67° NNE 00:44:29 10° ESE night (unlit)
06 Dec - 02:30:46 10° WNW 02:39:36 40° SW 02:48:11 10° SSE visible
06 Dec - 15:39:50 10° S 15:47:57 29° SE 15:56:08 10° ENE daylight
06 Dec - 17:42:09 10° SW 17:52:20 85° NW 18:02:33 10° NE visible
06 Dec - 19:49:17 10° W 19:58:38 39° NNW 20:07:53 10° NE visible
06 Dec - 21:57:19 10° NW 22:06:19 35° N 22:15:06 10° ENE visible
07 Dec - 00:03:12 10° NW 00:13:09 65° NNE 00:22:42 10° ESE night (unlit)
07 Dec - 02:08:54 10° WNW 02:17:55 42° SW 02:26:39 10° SSE visible
07 Dec - 15:18:23 10° S 15:26:15 27° SE 15:34:10 10° ENE daylight
07 Dec - 17:20:24 10° SW 17:30:34 89° NW 17:40:47 10° NE visible
07 Dec - 19:27:22 10° W 19:36:46 40° NNW 19:46:06 10° NE visible
07 Dec - 21:35:27 10° NW 21:44:26 34° N 21:53:13 10° ENE visible
07 Dec - 23:41:26 10° NW 23:51:21 62° NNE 00:00:55 10° ESE night (unlit)
08 Dec - 01:47:03 10° WNW 01:56:13 45° SW 02:05:05 10° SSE visible
08 Dec - 14:56:58 10° S 15:04:33 25° SE 15:12:11 10° ENE daylight
08 Dec - 16:58:39 10° SW 17:08:47 88° SE 17:19:00 10° NE visible
08 Dec - 19:05:27 10° W 19:14:54 41° NNW 19:24:19 10° NE visible
08 Dec - 21:13:35 10° NW 21:22:33 34° N 21:31:20 10° ENE visible
08 Dec - 23:19:39 10° NW 23:29:33 60° NNE 23:39:06 10° ESE night (unlit)
